Buenos Aires, Argentina

11:03 PM America en Septiembre 18, 2018 (GMT +0000)
Jorge Newbery Aeroparque

Tiempo Historia de SABE - Junio, 2018

Change the Weather History Date:

Miércoles, Junio 13, 2018

  Actual Average Record
Temperature  
Temperatura media 48 ° F -  
Temperatura máxima 51 ° F 59 ° F 77 ° F (2013)
Temperatura mínima 44 ° F 47 ° F 39 ° F (2002)
Degree Days  
Grados día de calefacción 18    
Moisture  
Punto de rocío 41 ° F    
Average Humidity 75    
Maximum Humidity 87    
Minimum Humidity 58    
Precipitación  
Precipitación 0.00 pul 0.08 pul - ()
Presión al nivel del mar  
Presión al nivel del mar 30.19 pul    
Viento  
Velocidad del viento 8 mph ()    
Velocidad máxima del viento 13 mph    
Max Gust Speed 30 mph    
Visibilidad 6.1 Millas    
Eventos Lluvia    
Averages and records for this station are not official NWS values.
T = Trace of Precipitation, MM = Missing Value Source: Averaged Metar Reports

Daily Weather History Graph

Daily Weather History Graph

Search for Another Location

Airport or City:

Astronomía

Jun. 13, 2018 Salida Puesta
Hora real 7:57 AM -03 5:49 PM -03
Crepúsculo civil 7:29 AM -03 6:17 PM -03
Crepúsculo náutico 6:58 AM -03 6:48 PM -03
Crepúsculo astronómico 6:27 AM -03 7:19 PM -03
Luna 7:27 AM -03 (6/13) 5:59 PM -03 (6/13)
Horas de luz 10h 47m
Horas de luz
9h 51m
Creciente menguante, 0% of the Moon is Illuminated
Jun 13
Creciente menguante
Jun 13
Nueva
Jun 20
Cuarto creciente
Jun 28
Luna llena
Jul 6
Cuarto menguante

Hourly Weather History & Observations

Hora (-03) Temp. Vientos helados Punto de rocío Humedad Presión Visibilidad Wind Dir Velocidad del viento Velocidad de ráfagas Precip Eventos Condiciones
12:00 AM 47 ° F - 41 ° F 73% 30.04 pul 6 mi OSO 11.5 mph - - Lluvia Lluvia débil
12:00 AM 46.4 ° F 41.1 ° F 42.8 ° F 87% 30.04 pul 5.6 mi OSO 11.5 mph 29.9 mph N/A Lluvia Lluvia débil
1:00 AM 48.2 ° F - 41.0 ° F 76% 30.04 pul 6.2 mi OSO 12.7 mph 24.2 mph N/A   Muy nublado
2:00 AM 48.2 ° F - 41.0 ° F 76% 30.04 pul 6.2 mi SO 11.5 mph 23.0 mph N/A   Muy nublado
3:00 AM 47 ° F - 41 ° F 74% 30.07 pul 6 mi SO 10.4 mph - -   Parcialmente nublado
3:00 AM 48.2 ° F - 42.8 ° F 82% 30.06 pul 6.2 mi OSO 11.5 mph 23.0 mph N/A   Nubes dispersas
4:00 AM 48.2 ° F - 42.8 ° F 82% 30.06 pul 6.2 mi OSO 9.2 mph 20.7 mph N/A   Muy nublado
5:00 AM 46.4 ° F 41.1 ° F 42.8 ° F 87% 30.06 pul 6.2 mi OSO 11.5 mph 23.0 mph N/A   Muy nublado
6:00 AM 47 ° F - 42 ° F 77% 30.11 pul 6 mi SO 10.4 mph - -   Muy nublado
6:00 AM 46.4 ° F 41.5 ° F 42.8 ° F 87% 30.09 pul 6.2 mi SO 10.4 mph 23.0 mph N/A   Muy nublado
7:00 AM 46.4 ° F 42.4 ° F 41.0 ° F 81% 30.12 pul 6.2 mi SO 8.1 mph - N/A   Muy nublado
8:00 AM 46.4 ° F 42.4 ° F 41.0 ° F 81% 30.15 pul 6.2 mi SO 8.1 mph - N/A   Nubes dispersas
9:00 AM 46 ° F - 41 ° F 78% 30.20 pul 6 mi OSO 6.9 mph - -   Muy nublado
9:00 AM 46.4 ° F 42.9 ° F 41.0 ° F 81% 30.18 pul 6.2 mi OSO 6.9 mph - N/A   Muy nublado
10:00 AM 48.2 ° F - 41.0 ° F 76% 30.21 pul 6.2 mi OSO 9.2 mph - N/A   Muy nublado
11:00 AM 48.2 ° F - 41.0 ° F 76% 30.24 pul 6.2 mi Oeste 9.2 mph - N/A   Muy nublado
12:00 PM 48 ° F - 40 ° F 67% 30.27 pul 6 mi OSO 8.1 mph - -   Nublado
12:00 PM 48.2 ° F - 41.0 ° F 76% 30.24 pul 6.2 mi Oeste 8.1 mph - N/A   Muy nublado
1:00 PM 48.2 ° F - 41.0 ° F 76% 30.24 pul 6.2 mi OSO 6.9 mph - N/A   Muy nublado
2:00 PM 48.2 ° F - 41.0 ° F 76% 30.24 pul 6.2 mi OSO 8.1 mph - N/A   Muy nublado
3:00 PM 52 ° F - 42 ° F 59% 30.25 pul 6 mi OSO 5.8 mph - -   Muy nublado
3:00 PM 51.8 ° F - 42.8 ° F 71% 30.24 pul 6.2 mi OSO 5.8 mph - N/A   Muy nublado
4:00 PM 50.0 ° F - 41.0 ° F 71% 30.24 pul 6.2 mi OSO 4.6 mph - N/A   Muy nublado
5:00 PM 50.0 ° F - 41.0 ° F 71% 30.27 pul 6.2 mi OSO 5.8 mph - N/A   Muy nublado
6:00 PM 50.0 ° F - 39.2 ° F 66% 30.27 pul 6.2 mi OSO 6.9 mph - N/A   Nubes dispersas
7:00 PM 50.0 ° F - 39.2 ° F 66% 30.27 pul 6.2 mi Oeste 5.8 mph - N/A   Nubes dispersas
8:00 PM 50.0 ° F - 39.2 ° F 66% 30.30 pul 6.2 mi OSO 4.6 mph - N/A   Nublado
9:00 PM 49 ° F - 39 ° F 58% 30.33 pul 6 mi Oeste 4.6 mph - -   Muy nublado
9:00 PM 48.2 ° F - 39.2 ° F 71% 30.24 pul 6.2 mi OSO 4.6 mph - N/A   Muy nublado
10:00 PM 48.2 ° F - 39.2 ° F 71% 30.33 pul 6.2 mi Oeste 3.5 mph - N/A   Muy nublado
11:00 PM 46.4 ° F 44.3 ° F 37.4 ° F 71% 30.33 pul 6.2 mi Oeste 4.6 mph - N/A   Nubes dispersas